Weather History for Jacksonville Craig, FL

Change the Weather History Date:

Monday, September 23, 2013

  Actual Average Record
Temperature  
Mean Temperature 78 °F -  
Max Temperature 82 °F 82 °F 90 °F (2006)
Min Temperature 73 °F 69 °F 62 °F (1996)
Cooling Degree Days 12    
Growing Degree Days 28 (Base 50)    
Moisture  
Dew Point 72 °F    
Average Humidity 81    
Maximum Humidity 91    
Minimum Humidity 71    
Precipitation  
Precipitation 0.01 in - - ()
Sea Level Pressure  
Sea Level Pressure 29.93 in    
Wind  
Wind Speed 2 mph (ENE)    
Max Wind Speed 6 mph    
Max Gust Speed -    
Visibility 10 miles    
Events Rain    
Averages and records for this station are not official NWS values.
T = Trace of Precipitation, MM = Missing Value Source: NWS Daily Summary

Daily Weather History Graph

Daily Weather History Graph

Search for Another Location

Airport:

Trip Planner

Search our weather history database for the weather conditions in past years. The results will help you decide how hot, cold, wet, or windy it might be!

Date:

Astronomy

Sep. 23, 2013 Rise Set
Actual Time 7:15 AM EDT 7:21 PM EDT
Civil Twilight 6:51 AM EDT 7:45 PM EDT
Nautical Twilight 6:23 AM EDT 8:12 PM EDT
Astronomical Twilight 5:55 AM EDT 8:40 PM EDT
Moon 10:12 PM EDT (9/23) 11:13 AM EDT (9/23)
Length of Visible Light 12h 53m
Length of Day
12h 05m
Waning Gibbous, 81% of the Moon is Illuminated
Sep 23
Waning Gibbous
Sep 26
Last Quarter
Oct 4
New
Oct 11
First Quarter
Oct 18
Full

Hourly Weather History & Observations

Time (EDT) Temp. Heat Index Dew Point Humidity Pressure Visibility Wind Dir Wind Speed Gust Speed Precip Events Conditions
12:53 AM 73.9 °F - 70.0 °F 87% 29.86 in 10.0 mi WNW 3.5 mph - 0.00 in Rain Light Rain
1:53 AM 73.9 °F - 70.0 °F 87% 29.86 in 10.0 mi WSW 3.5 mph - 0.00 in Rain Light Rain
2:53 AM 73.9 °F - 70.0 °F 87% 29.85 in 10.0 mi Calm Calm - 0.00 in   Mostly Cloudy
3:53 AM 73.9 °F - 71.1 °F 91% 29.86 in 10.0 mi Calm Calm - N/A   Overcast
4:53 AM 73.9 °F - 70.0 °F 87% 29.87 in 10.0 mi Calm Calm - N/A   Mostly Cloudy
5:53 AM 73.9 °F - 70.0 °F 87% 29.89 in 10.0 mi Calm Calm - N/A   Overcast
6:53 AM 73.9 °F - 70.0 °F 87% 29.91 in 10.0 mi Calm Calm - N/A   Overcast
7:53 AM 73.9 °F - 71.1 °F 91% 29.92 in 10.0 mi Calm Calm - N/A   Mostly Cloudy
8:53 AM 75.9 °F - 71.1 °F 85% 29.92 in 10.0 mi Calm Calm - 0.00 in   Scattered Clouds
9:53 AM 77.0 °F - 71.1 °F 82% 29.95 in 10.0 mi Calm Calm - N/A   Mostly Cloudy
10:01 AM 77.0 °F - 71.6 °F 83% 29.96 in 10.0 mi NNW 3.5 mph - N/A   Mostly Cloudy
10:53 AM 77.0 °F - 71.1 °F 82% 29.97 in 10.0 mi Calm Calm - N/A   Mostly Cloudy
11:53 AM 79.0 °F - 72.0 °F 79% 29.98 in 10.0 mi Calm Calm - 0.00 in   Overcast
12:17 PM 80.6 °F 84.6 °F 71.6 °F 74% 29.97 in 10.0 mi Calm Calm - N/A   Overcast
12:35 PM 80.6 °F 84.6 °F 71.6 °F 74% 29.97 in 10.0 mi Calm Calm - N/A   Overcast
12:44 PM 80.6 °F 84.6 °F 71.6 °F 74% 29.96 in 10.0 mi Calm Calm - N/A   Overcast
12:53 PM 81.0 °F 85.2 °F 72.0 °F 74% 29.96 in 10.0 mi Calm Calm - N/A   Overcast
1:02 PM 80.6 °F 84.6 °F 71.6 °F 74% 29.95 in 10.0 mi Calm Calm - N/A   Overcast
1:53 PM 81.0 °F 85.2 °F 72.0 °F 74% 29.94 in 10.0 mi Calm Calm - N/A   Overcast
2:30 PM 80.6 °F 84.6 °F 71.6 °F 74% 29.93 in 10.0 mi NNE 4.6 mph - N/A   Overcast
2:53 PM 82.0 °F 86.7 °F 72.0 °F 71% 29.93 in 10.0 mi North 5.8 mph - N/A   Mostly Cloudy
3:53 PM 82.0 °F 87.4 °F 73.0 °F 74% 29.93 in 10.0 mi Calm Calm - 0.00 in Rain Light Rain
4:53 PM 81.0 °F 85.8 °F 73.0 °F 77% 29.93 in 10.0 mi ESE 4.6 mph - 0.00 in   Mostly Cloudy
5:53 PM 81.0 °F 85.8 °F 73.0 °F 77% 29.94 in 10.0 mi ENE 3.5 mph - N/A   Mostly Cloudy
6:27 PM 80.6 °F 85.4 °F 73.4 °F 79% 29.94 in 10.0 mi East 5.8 mph - N/A   Scattered Clouds
6:53 PM 81.0 °F 85.8 °F 73.0 °F 77% 29.95 in 10.0 mi East 3.5 mph - N/A   Scattered Clouds
7:00 PM 80.6 °F 84.6 °F 71.6 °F 74% 29.95 in 10.0 mi East 3.5 mph - N/A   Mostly Cloudy
7:12 PM 80.6 °F 84.6 °F 71.6 °F 74% 29.95 in 10.0 mi Calm Calm - N/A   Mostly Cloudy
7:53 PM 79.0 °F - 73.0 °F 82% 29.95 in 10.0 mi Calm Calm - N/A   Mostly Cloudy
8:53 PM 77.0 °F - 72.0 °F 84% 29.95 in 10.0 mi East 3.5 mph - N/A   Clear
9:53 PM 78.1 °F - 73.0 °F 84% 29.97 in 10.0 mi Calm Calm - N/A   Mostly Cloudy
10:53 PM 75.9 °F - 72.0 °F 87% 29.97 in 10.0 mi SE 5.8 mph - 0.00 in   Scattered Clouds
11:53 PM 75.0 °F - 72.0 °F 90% 29.97 in 10.0 mi Calm Calm - 0.01 in   Clear